Flag for Hungary Weather past 2 weeks in Budapest, Hungary

Now
63 °F

Clear.


Feels Like: 63 °F
Forecast: 56 / 91 °F
Wind: 2 mph from North

Location: Ferenc Liszt International Airport

Current Time: Aug 28, 2015 at 4:26:24 AM

Latest Report: Aug 28, 2015 at 4:00 AM


Visibility: 10 mi

Pressure: 30.04 "Hg

Humidity: 94%

Dew point: 61 °F

Location of BudapestLocation

Historic Weather in Budapest — Graph

°F

Budapest temperature yesterday

Maximum temperature yesterday: 82 °F (at 3:00 PM)
Minimum temperature yesterday: 55 °F (at 5:00 AM)
Average temperature yesterday: 71 °F

Past Weeks' High & Low Weather Summary

 TemperatureHumidityPressure
High100 °F (Aug 13, 4:00 PM)100% (Aug 17, 7:30 PM)30.21 "Hg (Aug 17, 7:30 PM)
Low54 °F (Aug 24, 6:00 AM)21% (Aug 13, 4:30 PM)29.71 "Hg (Aug 15, 5:00 PM)
Average72 °F69%29.98 "Hg
* Reported Aug 13 3:00 AM — Aug 28 3:00 AM, Budapest, Weather by CustomWeather, © 2015

Note: Actual official high and low records may vary slightly from our data, if they occured in-between our weather recording intervals... More about our weather records

Advertising

Budapest weather history for previous 24 hours

 ConditionsComfort  
Time TempWeatherWind HumidityBarometerVisibility
3:00 AM
Fri, Aug 28
64 °FClear.3 mph88%30.04 "Hg10 mi
2:30 AM64 °FClear.3 mph88%30.04 "Hg10 mi
2:00 AM64 °FClear.3 mph88%30.04 "Hg10 mi
1:30 AM64 °FClear.5 mph94%30.04 "Hg10 mi
1:00 AM66 °FClear.6 mph88%30.04 "Hg10 mi
12:30 AM66 °FClear.5 mph88%30.04 "Hg10 mi
12:00 AM66 °FClear.5 mph88%30.04 "Hg10 mi
11:30 PM
Thu, Aug 27
68 °FClear.3 mph88%30.04 "Hg10 mi
11:00 PM70 °FClear.5 mph83%30.04 "Hg10 mi
10:30 PM70 °FClear.2 mph83%30.04 "Hg10 mi
10:00 PM72 °FClear.3 mph78%30.04 "Hg10 mi
9:30 PM70 °FClear.3 mph83%30.04 "Hg10 mi
9:00 PM70 °FClear.No wind83%30.04 "Hg10 mi
8:30 PM73 °FSunny.No wind74%30.04 "Hg10 mi
8:00 PM73 °FSunny.5 mph74%30.04 "Hg10 mi
7:30 PM75 °FSunny.3 mph69%30.04 "Hg10 mi
7:00 PM81 °FSunny.5 mph58%30.04 "Hg10 mi
6:30 PM82 °FPassing clouds.6 mph51%30.04 "HgN/A
6:00 PM82 °FPassing clouds.6 mph51%30.04 "HgN/A
5:30 PM82 °FSunny.7 mph55%30.07 "Hg10 mi
5:00 PM82 °FPassing clouds.8 mph51%30.07 "HgN/A
4:30 PM82 °FPartly sunny.10 mph51%30.07 "HgN/A
4:00 PM82 °FScattered clouds.7 mph55%30.07 "HgN/A
3:30 PM82 °FScattered clouds.7 mph51%30.07 "HgN/A
3:00 PM82 °FScattered clouds.6 mph55%30.09 "HgN/A
2:30 PM81 °FScattered clouds.8 mph54%30.09 "HgN/A
2:00 PM81 °FScattered clouds.7 mph54%30.09 "HgN/A
1:30 PM81 °FScattered clouds.10 mph54%30.09 "HgN/A
1:00 PM81 °FScattered clouds.8 mph54%30.09 "HgN/A
12:30 PM79 °FScattered clouds.7 mph51%30.12 "HgN/A
12:00 PM77 °FPassing clouds.6 mph57%30.12 "HgN/A
11:30 AM77 °FScattered clouds.9 mph54%30.12 "HgN/A
11:00 AM79 °FPartly sunny.7 mph54%30.12 "HgN/A
10:30 AM79 °FPassing clouds.2 mph51%30.12 "HgN/A
10:00 AM77 °FSunny.3 mph57%30.12 "Hg10 mi
9:30 AM75 °FSunny.3 mph61%30.12 "Hg10 mi
9:00 AM72 °FSunny.3 mph69%30.12 "Hg10 mi
8:30 AM70 °FSunny.3 mph69%30.12 "Hg10 mi
8:00 AM66 °FSunny.3 mph78%30.09 "Hg10 mi
7:30 AM64 °FSunny.1 mph78%30.09 "Hg10 mi
7:00 AM61 °FSunny.3 mph83%30.09 "Hg10 mi
6:30 AM59 °FClear.2 mph88%30.09 "Hg10 mi
6:00 AM55 °FClear.2 mph94%30.09 "Hg10 mi
5:30 AM57 °FClear.No wind94%30.09 "Hg10 mi
5:00 AM55 °FClear.2 mph94%30.09 "Hg10 mi
4:30 AM57 °FClear.No wind94%30.09 "Hg10 mi
4:00 AM57 °FClear.2 mph94%30.09 "Hg10 mi
Weather by CustomWeather, © 2015

See weather overviewHow to use our weather pages